Location: Cactus School
(34.5700°N, 118.0931°W)
Time: 07:57:59
(UTC-07:00)

Vanguard 1 Rocket - Pass Details

Date: 19 April 2024
Orbit: 650 x 4220 km, 34.3° (Epoch: 22 May)

Event Time Altitude Azimuth Distance (km) Brightness Sun altitude
Rises 22:16:44 0° 277° (W) 3,604 11.2 -31.0°
Reaches altitude 10° 22:18:46 10° 276° (W) 2,884 10.5 -31.3°
Maximum altitude 22:25:49 82° 190° (S) 1,584 8.3 -32.3°
Enters shadow 22:27:42 64° 117° (ESE) 1,868 8.5 -32.6°
